Location: A�t Bou Chrif
(32.7193°N, 5.2385°W)
Time: 04:17:42
(UTC+00:00)

ATLAS 5 CENTAUR R/B - Pass Details

Date: 08 August 2020
Orbit: 533 x 1125 km, 63.4° (Epoch: 19 September)

Event Time Altitude Azimuth Distance (km) Brightness Sun altitude
Rises 20:46:12 0° 334° (NNW) 3,402 6.4 -18.4°
Reaches altitude 10° 20:48:34 10° 339° (NNW) 2,550 5.5 -18.8°
Maximum altitude 20:54:32 59° 58° (ENE) 1,130 2.7 -19.9°
Enters shadow 20:57:16 35° 121° (ESE) 1,585 3.0 -20.3°
